Location: Valencia
(39.4670°N, 0.3670°W)
Time: 18:18:16
(UTC+02:00)

ISS - Pass Details

Date: 06 August 2017
Orbit: 401 x 408 km, 51.6° (Epoch: 19 August)

Event Time Altitude Azimuth Distance (km) Brightness Sun altitude
Rises 22:22:39 0° 315° (NW) 2,316 1.8 -13.4°
Reaches altitude 10° 22:25:12 10° 336° (NNW) 1,455 -0.1 -13.8°
Maximum altitude 22:27:31 18° 21° (NNE) 1,073 -1.5 -14.2°
Enters shadow 22:29:35 11° 64° (ENE) 1,383 -1.4 -14.5°
